Zurück zum Katalog

STARLINK-4134

AktivKommunikationVLEO
NORAD 53254·PAYLOAD·🇺🇸 United States

Gestartet Jul 24, 2022 von Cape Canaveral Space Force Station

Loading…

Nächste Überflüge (nächste 24 Stunden)

TLE

AktuellSource: CelesTrak SupGP

Epoche: Sep 14, 2026, 14:27 UTC

1 53254C 22086N   26257.60256944 -.00032114  00000+0 -10326-2 0  2578
2 53254  53.1587  61.2596 0001269  93.8092 144.2678 15.31722114    18

Verfolge STARLINK-4134 in Echtzeit mit AllMySat

Download on the App Store